[Iaude] MPEC O17: FIVE NEW TNOS
    mpec at cfa.harvard.edu 
    mpec at cfa.harvard.edu
       
    Sat Jul 20 03:35:24 EDT 2024
    
    
  
M.P.E.C. 2024-O17                                 Issued 2024 July 20, 07:33 UT
     The Minor Planet Electronic Circulars contain information on unusual
         minor planets, routine data on comets and natural satellites,
         and occasional editorial announcements.  They are published
    on behalf of Division F of the International Astronomical Union by the
          Minor Planet Center, Smithsonian Astrophysical Observatory,
                          Cambridge, MA 02138, U.S.A.
			  
             Prepared using the Tamkin Foundation Computer Network
                              MPC at CFA.HARVARD.EDU
            URL https://www.minorplanetcenter.net/    ISSN 1523-6714
                                 FIVE NEW TNOS                                  
Observations:
     K16Ad4Q 1C2015 03 22.42767709 10 10.68 +02 06 02.6                WEO017T09
     K16Ad4Q*1C2016 01 12.38341309 19 53.65 +01 31 45.7                WEO017T09
     K16Ad4Q 1C2016 01 12.41466209 19 53.52 +01 31 46.1                WEO017T09
     K16Ad4Q 1C2016 03 07.38155209 15 54.89 +01 53 13.3                WEO017T09
     K16Ad4Q 1C2016 11 28.52194609 26 40.61 +01 25 58.0                WEO017T09
     K16Ad4Q 4C2016 11 29.50349 09 26 39.77 +01 25 46.7          24.5 i1EO017T09
     K16Ad4Q 4C2016 11 29.51494 09 26 39.75 +01 25 46.5          25.0 i1EO017T09
     K16Ad4Q 4C2016 11 29.64147 09 26 39.65 +01 25 45.2          24.5 z1EO017T09
     K16Ad4Q 4C2016 11 29.64415 09 26 39.64 +01 25 45.2          24.3 z1EO017T09
     K16Ad4Q 4C2016 11 29.64685 09 26 39.63 +01 25 45.0          24.7 z1EO017T09
     K16Ad4Q 4C2016 11 29.64951 09 26 39.63 +01 25 45.0          23.8 z1EO017T09
     K16Ad4Q 1C2019 03 08.28342209 30 39.13 +01 36 19.0                WEO017T09
     K16Ad4Q 1C2019 03 08.32342109 30 38.96 +01 36 20.2                WEO017T09
     K16Ga7Y*1C2016 04 02.33103009 32 50.91 +00 15 08.4                WEO017T09
     K16Ga7Y 1C2016 04 04.24407809 32 45.62 +00 16 03.3                WEO017T09
     K16Ga7Y 1C2016 04 04.26599909 32 45.56 +00 16 03.9                WEO017T09
     K16Ga7Y 1C2016 12 25.44913709 45 57.01 -01 05 29.6                WEO017T09
     K16Ga7Y 1C2016 12 25.49169409 45 56.87 -01 05 29.9                WEO017T09
     K16Ga7Y 1C2017 01 28.43814609 43 37.10 -01 02 58.1                WEO017T09
     K16Ga7Y 1C2017 01 28.45291209 43 37.02 -01 02 57.9                WEO017T09
     K16Ga7Y 4C2017 03 04.39457 09 40 39.44 -00 49 26.4          24.8 i1EO017T09
     K16Ga7Y 4C2017 03 04.39993 09 40 39.43 -00 49 26.3          25.1 i1EO017T09
     K16Ga7Y 4C2017 03 04.40261 09 40 39.42 -00 49 26.1          24.8 i1EO017T09
     K16Ga7Y 4C2017 03 04.41889 09 40 39.34 -00 49 25.6          24.5 i1EO017T09
     K16Ga7Y 4C2017 03 04.42965 09 40 39.29 -00 49 25.8          24.9 i1EO017T09
     K16Ga7Y 4C2017 03 04.43238 09 40 39.28 -00 49 25.3          24.8 i1EO017T09
     K16Ga7Y 1C2017 03 06.41621209 40 29.86 -00 48 27.3                WEO017T09
     K17BO4Z 1C2015 03 22.43598609 22 32.34 +00 04 24.1                WEO017T09
     K17BO4Z 1C2016 04 02.32288209 26 25.16 -00 08 47.5                WEO017T09
     K17BO4Z 1C2016 04 02.35234309 26 25.08 -00 08 46.8                WEO017T09
     K17BO4Z 1C2016 04 04.24904409 26 20.86 -00 07 54.5                WEO017T09
     K17BO4Z 1C2016 04 04.26388609 26 20.82 -00 07 54.0                WEO017T09
     K17BO4Z 1C2016 11 28.51069509 37 35.62 -00 54 28.2                WEO017T09
     K17BO4Z 1C2016 11 28.55910709 37 35.59 -00 54 28.6                WEO017T09
     K17BO4Z 1C2016 11 28.57810409 37 35.57 -00 54 29.1                WEO017T09
     K17BO4Z 1C2016 11 29.50956309 37 34.98 -00 54 44.3                WEO017T09
     K17BO4Z*4C2017 01 21.36520 09 35 18.88 -00 56 07.6          24.4 z1EO017T09
     K17BO4Z 4C2017 01 21.38272 09 35 18.79 -00 56 07.1          23.8 z1EO017T09
     K17BO4Z 4C2017 01 21.39079 09 35 18.76 -00 56 06.9          24.4 z1EO017T09
     K17BO4Z 4C2017 01 21.40149 09 35 18.72 -00 56 06.8          24.4 z1EO017T09
     K17BO4Z 1C2017 01 28.38298309 34 49.97 -00 54 25.4                WEO017T09
     K17BO4Z 1C2017 01 28.40194809 34 49.90 -00 54 25.0                WEO017T09
     K17BO4Z 4C2017 02 01.54186 09 34 32.28 -00 53 14.1          24.3 i1EO017T09
     K17BO4Z 4C2017 02 01.55002 09 34 32.27 -00 53 13.7          24.0 i1EO017T09
     K17BO4Z 4C2017 02 01.57762 09 34 32.13 -00 53 13.4          24.3 i1EO017T09
     K17BO4Z 4C2017 02 01.58031 09 34 32.14 -00 53 13.4          24.0 i1EO017T09
     K17BO5A 1C2017 01 26.55887010 03 58.52 -00 17 38.2                WEO017T09
     K17BO5A 1C2017 01 26.61261410 03 58.29 -00 17 37.9                WEO017T09
     K17BO5A*4C2017 01 28.51088 10 03 50.55 -00 17 10.3          23.8 z1EO017T09
     K17BO5A 4C2017 01 28.53366 10 03 50.45 -00 17 10.1          23.8 z1EO017T09
     K17BO5A 4C2017 01 28.55243 10 03 50.39 -00 17 09.6          23.8 z1EO017T09
     K17BO5A 4C2017 01 28.56591 10 03 50.33 -00 17 09.4          23.5 z1EO017T09
     K17BO5A 4C2017 02 02.36824 10 03 30.22 -00 15 52.8          24.3 r1EO017T09
     K17BO5A 4C2017 02 02.37761 10 03 30.17 -00 15 52.6          24.4 r1EO017T09
     K17BO5A 4C2017 02 02.39961 10 03 30.08 -00 15 52.1          24.1 r1EO017T09
     K17BO5A 4C2017 02 02.41283 10 03 30.04 -00 15 51.8          24.2 r1EO017T09
     K17BO5A 1C2017 03 29.23392009 59 44.36 +00 06 28.7                WEO017T09
     K17BO5A 1C2017 03 29.25127609 59 44.30 +00 06 29.0                WEO017T09
     K17BO5A 1C2017 04 28.33240209 58 39.57 +00 18 32.6                WEO017T09
     K17BO5A 4C2018 01 17.53186 10 09 20.73 -00 53 13.5          24.4 i1EO017T09
     K17BO5A 4C2018 01 17.56687 10 09 20.62 -00 53 13.4          24.4 i1EO017T09
     K17BO5A 4C2018 01 17.59367 10 09 20.53 -00 53 13.0          24.6 i1EO017T09
     K17BO5A 1C2018 12 13.64038010 15 33.12 -01 26 12.9                WEO017T09
     K17BO5A 1C2019 02 04.42744210 13 01.07 -01 23 36.4                WEO017T09
     K17E57U 4C2017 01 26.47200 09 50 51.99 +00 53 18.0          24.3 z1EO017T09
     K17E57U 4C2017 01 26.47736 09 50 51.97 +00 53 17.8          24.3 z1EO017T09
     K17E57U 4C2017 01 26.50415 09 50 51.84 +00 53 18.5          24.2 z1EO017T09
     K17E57U 4C2017 01 26.57497 09 50 51.48 +00 53 20.0          23.6 z1EO017T09
     K17E57U 4C2017 01 26.58838 09 50 51.43 +00 53 20.4          24.3 z1EO017T09
     K17E57U 4C2017 01 26.60185 09 50 51.35 +00 53 20.5          24.6 z1EO017T09
     K17E57U 1C2017 02 02.37109709 50 19.04 +00 55 47.3                WEO017T09
     K17E57U 1C2017 02 02.40184809 50 18.89 +00 55 48.0                WEO017T09
     K17E57U*4C2017 03 06.36925 09 47 42.05 +01 11 23.1          24.7 i1EO017T09
     K17E57U 4C2017 03 06.38322 09 47 42.00 +01 11 23.5          24.7 i1EO017T09
     K17E57U 4C2017 03 06.39715 09 47 41.93 +01 11 24.0          24.9 i1EO017T09
     K17E57U 4C2017 03 06.43773 09 47 41.73 +01 11 25.2          24.4 i1EO017T09
     K17E57U 1C2018 01 17.50760409 58 45.98 +00 27 01.1                WEO017T09
     K17E57U 1C2018 01 17.53463009 58 45.86 +00 27 01.6                WEO017T09
     K17E57U 1C2019 05 09.25258509 59 22.94 +00 56 22.7                WEO017T09
     K17E57U 1C2019 05 09.37502309 59 22.94 +00 56 25.1                WEO017T09
Observer details:
T09 Subaru Telescope, Maunakea.  Observers , H. Aihara, Y. AlSayyad, M. Ando,
    R. Armstrong, J. Bosch, E. Egami, H. Furusawa, J. Furusawa, S. Harasawa,
    Y. Harikane, B.-C. Hsieh, H. Ikeda, K. Ito, I. Iwata, T. Kodama, M. Koike,
    M. Kokubo, Y. Komiyama, X. Li, Y. Liang, Y.-T. Lin, R. H. Lupton, N. B.
    Lust, L. A. MacArthur, K. Mawatari, S. Mineo, H. Miyatake, S. Miyazaki, S.
    More, T. Morishima, H. Murayama, K. Nakajima, F. Nakata, A. J. Nishizawa,
    M. Oguri, N. Okabe, Y. Okura, Y. Ono, K. Osato, M. Ouchi, Y.-C. Pan, A. A.
    Plazas Malagon, P. A. Price, S. L. Reed, E. S. Rykoff, T. Shibuya, M.
    Simunovic, M. A. Strauss, K. Sugimori, Y. Suto, N. Suzuki, M. Takada, Y.
    Takagi, T. Takata, S. Takita, M. Tanaka, S. Tang, D. S. Taranu, T. Terai,
    Y. Toba, E. L. Turner, H. Uchiyama, B. Vijarnwannaluk, C. Z. Waters, Y.
    Yamada, N. Yamamoto, T. Yamashita.  Measurers S. Deen, A. Yamauchi, M.
    Higano, H. Fukuyama.  8.3-m Subaru Telescope + CCD, 8.2-m f/2.0 reflector
    + CCD(HSC).
Orbital elements:
2016 AQ394                                                                      
Epoch 2024 Oct. 17.0 TT = JDT 2460600.5                 Alexandersen            
M 170.66790              (2000.0)            P               Q                  
n   0.00380664     Peri.  154.28022     +0.92692089     +0.37459656             
a  40.6232851      Node   183.92709     -0.37514943     +0.92360701             
e   0.0753164      Incl.   18.95863     -0.00897603     +0.08140948             
P 259              H    8.29          G   0.15           U   6                  
Residuals in seconds of arc
K153M  T09  0.0   0.0     K16BT  T09  0.0   0.1+    K16BT  T09  0.0   0.0  
K161C  T09  0.1+  0.1-    K16BT  T09  0.2-  0.0     K1938  T09  0.1+  0.0  
K161C  T09  0.1+  0.1-    K16BT  T09  0.2+  0.1+    K1938  T09  0.1-  0.0  
K1637  T09  0.1-  0.0     K16BT  T09  0.1+  0.1+    
K16BS  T09  0.0   0.0     K16BT  T09  0.1-  0.0     
2016 GY367                                                                      
Epoch 2024 Oct. 17.0 TT = JDT 2460600.5                 Alexandersen            
M   2.51506              (2000.0)            P               Q                  
n   0.00345804     Peri.  244.48819     -0.89368814     -0.34638289             
a  43.3094155      Node   274.14607     +0.43941085     -0.80424464             
e   0.1318595      Incl.   16.61569     -0.09077228     -0.48291765             
P 285              H    9.39          G   0.15           U   8                  
Residuals in seconds of arc
mailing list